Regional Weather Roundup
Issued by NWS

Home | Current Version | Previous Version | Text Only | Print | Product List | Glossary Off
Versions: 1 2 3 4 5 6 7 8 9 10 11 12 13 14 15 16 17 18 19 20 21 22 23 24 25 26 27 28 29 30 31 32 33 34 35 36 37 38 39 40 41 42 43 44 45 46 47 48 49 50

000
ASUS43 KMKX 032311
RWRWI

WISCONSIN REGIONAL WEATHER ROUNDUP
NATIONAL WEATHER SERVICE MILWAUKEE/SULLIVAN WI
600 PM CDT MON AUG 03 2015

NOTE: "FAIR" INDICATES FEW OR NO CLOUDS BELOW 12,000 FEET WITH NO
SIGNIFICANT WEATHER AND/OR OBSTRUCTIONS TO VISIBILITY.

WIZ001-002-006>008-014>016-023>028-040000-
NORTHWEST WISCONSIN

CITY           SKY/WX    TMP DP  RH WIND       PRES   REMARKS
SUPERIOR ARPT  CLOUDY    70  55  59 NW12      29.85S
ASHLAND        PTSUNNY   70  55  59 VRB6      29.84S
HAYWARD        CLOUDY    71  52  50 VRB7      29.87S
SIREN          PTSUNNY   73  50  44 NW10      29.88S
CUMBERLAND     MOSUNNY   72  48  43 W12G18    29.89S
RICE LAKE      MOSUNNY   73  50  43 W9        29.89S
CHETEK         CLOUDY    74  52  45 W9G17     29.88S
LADYSMITH      MOSUNNY   71  53  53 W12       29.89S
EAU CLAIRE     CLOUDY    75  49  39 W13       29.87S
MENOMONIE      MOSUNNY   76  48  36 W10       29.88S
NEW RICHMOND   SUNNY     74  48  39 NW9       29.89F
OSCEOLA        MOSUNNY   75  50  41 W7        29.91F
$$

WIZ003>005-009-010-017-018-040000-
NORTH CENTRAL WISCONSIN

CITY           SKY/WX    TMP DP  RH WIND       PRES   REMARKS
MANITOWISH WTR CLOUDY    67  53  59 NW10      29.85S
ARBOR VITAE    MOSUNNY   67  55  65 W12       29.85S
WOODRUFF       MOSUNNY   67  55  65 W12       29.85S
RHINELANDER    PTSUNNY   66  53  63 W10       29.87R
EAGLE RIVER    PTSUNNY   67  50  54 NW9       29.84S
LAND O LAKES   MOSUNNY   67  51  58 W7        29.85S
PHILLIPS       CLOUDY    67  54  63 W9        29.87S
TOMAHAWK       CLOUDY    67  53  61 W9G17     29.87R
MEDFORD        CLOUDY    67  54  62 NW10      29.88S
MERRILL        NOT AVBL
$$

WIZ029-030-035-036-043>047-040000-
CENTRAL WISCONSIN

CITY           SKY/WX    TMP DP  RH WIND       PRES   REMARKS
WAUSAU         PTSUNNY   71  52  50 NW16      29.84R
MOSINEE        NOT AVBL
MARSHFIELD     MOSUNNY   73  51  46 NW16G22   29.87R
STEVENS POINT  PTSUNNY   72  52  50 NW8       29.86R
WAUPACA        MOSUNNY   78  51  39 W10G18    29.83S
WAUTOMA        MOSUNNY   80  49  33 NW13      29.84S
WISC RAPIDS    MOSUNNY   77  48  35 NW14G23   29.86S
CAMP DOUGLAS   MOSUNNY   77  52  41 NW14      29.86S
$$

WIZ011>013-019>022-031-037>040-048>050-040000-
NORTHEAST WISCONSIN

CITY           SKY/WX    TMP DP  RH WIND       PRES   REMARKS
ANTIGO         CLOUDY    69  53  57 NW10G17   29.86R
SHAWANO        CLOUDY    72  55  55 W9        29.83R
OCONTO         MOSUNNY   74  53  47 NW8       29.79S
STURGEON BAY   MOSUNNY   72  54  53 NW12      29.82S
GREEN BAY      CLOUDY    73  56  54 NW9       29.81R
MANITOWOC      CLOUDY    76  51  41 MISG      29.81R
APPLETON       PTSUNNY   73  48  40 W17       29.84R
CLINTONVILLE   CLOUDY    73  50  43 N7        29.82S
OSHKOSH        MOSUNNY   76  52  43 NW13G22   29.82S
$$

WIZ032>034-041-042-053>061-040000-
SOUTHWEST WISCONSIN

CITY           SKY/WX    TMP DP  RH WIND       PRES   REMARKS
LA CROSSE      MOSUNNY   79  51  37 NW13      29.87S
SPARTA         MOSUNNY   78  44  29 NW12G20   29.88F
VIROQUA        MOSUNNY   76  52  43 NW7       29.90S
BOSCOBEL       SUNNY     80  52  37 NW7       29.88S HX  80
PRAIRIE DU CHI SUNNY     80  47  31 W12       29.88S
PLATTEVILLE    SUNNY     78  51  39 W9G18     29.90S
$$

WIZ056-057-062-063-064-067-068-040000-
SOUTH CENTRAL WISCONSIN

CITY           SKY/WX    TMP DP  RH WIND       PRES   REMARKS
REEDSBURG      MOSUNNY   78  50  37 NW9G18    29.87S
BARABOO/DELLS  SUNNY     78  45  31 NW13G22   29.87S
LONE ROCK      SUNNY     80  49  33 W16       29.87S
MINERAL POINT  SUNNY     79  46  31 W10       29.89S
MADISON        MOSUNNY   79  50  36 NW7       29.86R
MIDDLETON      SUNNY     79  44  28 NW12      29.87S
WATERTOWN      MOSUNNY   78  52  40 W12       29.84S
MONROE         MOSUNNY   79  50  36 W12G17    29.88S
JANESVILLE     MOSUNNY   81  48  32 W12       29.86S HX  80
$$

WIZ051-052-058>065-066-070>072-040000-
SOUTHEAST WISCONSIN

CITY           SKY/WX    TMP DP  RH WIND       PRES   REMARKS
MILWAUKEE      MOSUNNY   81  48  31 NW12      29.84R HX  80
WAUKESHA       MOSUNNY   77  46  33 W17G29    29.86R
MILWAUKEE/TIMM MOSUNNY   79  43  27 NW14G22   29.84S
RACINE         MOSUNNY   80  49  33 W12       29.85S
BURLINGTON     SUNNY     77  47  34 NW9       29.86S
KENOSHA        SUNNY     78  53  41 W12       29.85S
FOND DU LAC    PTSUNNY   77  52  41 NW10      29.83R
SHEBOYGAN      CLOUDY    76  53  44 NW13      29.82R
WEST BEND      PTSUNNY   75  45  33 W10G18    29.84R
JUNEAU         SUNNY     76  52  42 W12G18    29.86R
$$

LSZ147-162-040000-
LAKE SUPERIOR

STATION/POSITION TIME  TEMP    WIND        PRES    WAVE
                       AIR SEA DIR/SP/G            HT/PER
                 (UTC) (F)     (DEG/KT/KT) (MB)    (FT/S)
W MID LAKE BUOY  2250   59 56  240/ 12/ 14 1008.4S   1/ 4
DEVILS ISLAND    2300   58     290/ 13/ 15 1010.4R
PORT WING        2200   69     250/ 11/ 14 1010.2
SAXON HARBOR     2200   71     280/  9     1009.8
$$

LMZ867-665-643>646-040000-
LAKE MICHIGAN

STATION/POSITION TIME  TEMP    WIND        PRES    WAVE
                       AIR SEA DIR/SP/G            HT/PER
                 (UTC) (F)     (DEG/KT/KT) (MB)    (FT/S)
CHAMBERS ISLAND  2200   74     290/  6/ 11 1008.5R
S GREEN BAY BUOY 2300   71 70  320/  8/ 12 1010.4R
N MID LAKE BUOY  2250   66 68  330/  6/  6 1008.3R   2/ 3
NORTHPORT PIER   2200   68      10/  3/  5 1008.5R
SISTER BAY       2218   69     360/  9/ 10   N/A
ALGOMA LAKESHORE 2242          330/ 15/ 18   N/A
KEWAUNEE LAKESHO 2200   74     310/  5/  9 1008.4R
SHEBOYGAN LAKESH 2300   76     280/ 12/ 15 1009.7R
PORT WASHINGTON  2240   80     300/  7/ 14 1010.5R
ATWATER BUOY     2300   69 48  280/ 12/ 14 1011.6R
MILWAUKEE LAKESH 2200   78     300/ 14/ 22   N/A
KENOSHA   LAKESH 2300   79     290/ 11/ 18 1009.8F
$$

TC  - TEMPERATURE IN CELSIUS
VSB - VISIBILITY IN STATUTE MILES
WCI - WIND CHILL INDEX
HX  - HEAT INDEX



USA.gov is the U.S. government's official web portal to all federal, state and local government web resources and services.